Flag for United Kingdom Weather past 2 weeks in Huddersfield, England, United Kingdom

Now
34 °F

Clear.


Feels Like: 31 °F
Forecast: 37 / 55 °F
Wind: 3 mph from Southeast

Location: Leeds And Bradford


UV Index: 0 (Low)

Visibility: 10 mi


Pressure: 30.33 "Hg

Humidity: 93%

Dew point: 32 °F

Location of HuddersfieldLocation

Historic Weather in Huddersfield

°F

Huddersfield temperature yesterday

Maximum temperature yesterday: 57 °F (at 3:50 PM)
Minimum temperature yesterday: 37 °F (at 5:50 AM)
Average temperature yesterday: 48 °F

Past Weeks' High & Low Weather Summary

 TemperatureHumidityPressure
High59 °F (Apr 6, 11:50 AM)100% (Apr 1, 4:20 AM)30.42 "Hg (Apr 1, 4:20 AM)
Low36 °F (Apr 16, 3:50 AM)38% (Apr 14, 2:50 PM)29.50 "Hg (Apr 7, 1:50 PM)
Average47 °F83%29.93 "Hg
* Reported Apr 1 4:20 AM — Apr 16 4:50 AM, Huddersfield, Weather by CustomWeather, © 2014

Note: Actual official high and low records may vary slightly from our data, if they occured in-between our weather recording intervals... More about our weather records

Advertising

Historic Weather Conditions — Data for Previous 24 hours

 ConditionsComfort  
Time TempWeatherWind HumidityBarometerVisibility
4:50 AM
Apr 16
36 °FClear.1 mph87%30.33 "Hg10 mi
4:20 AM36 °FClear.1 mph87%30.33 "Hg10 mi
3:50 AM36 °FClear.3 mph87%30.33 "Hg10 mi
3:20 AM37 °FClear.3 mph87%30.36 "Hg10 mi
2:50 AM37 °FClear.5 mph87%30.36 "Hg10 mi
2:20 AM37 °FClear.7 mph87%30.36 "Hg10 mi
1:50 AM37 °FClear.7 mph87%30.36 "Hg10 mi
1:20 AM39 °FClear.7 mph87%30.36 "Hg10 mi
12:20 AM41 °FClear.9 mph87%30.36 "Hg10 mi
11:20 PM
Apr 15
43 °FClear.8 mph81%30.36 "Hg10 mi
10:50 PM43 °FClear.9 mph87%30.36 "Hg10 mi
10:20 PM45 °FClear.9 mph81%30.36 "Hg10 mi
9:50 PM45 °FClear.10 mph81%30.36 "Hg10 mi
9:20 PM46 °FClear.10 mph71%30.36 "Hg10 mi
8:50 PM48 °FSunny.10 mph66%30.36 "Hg10 mi
8:20 PM48 °FPassing clouds.8 mph66%30.36 "HgN/A
7:50 PM50 °FSunny.10 mph62%30.36 "Hg10 mi
7:20 PM52 °FSunny.12 mph58%30.36 "Hg10 mi
6:50 PM52 °FSunny.8 mph58%30.36 "Hg10 mi
6:20 PM54 °FPassing clouds.7 mph54%30.36 "HgN/A
5:50 PM54 °FPassing clouds.8 mph54%30.36 "HgN/A
5:20 PM55 °FPassing clouds.8 mph51%30.36 "HgN/A
4:50 PM55 °FPassing clouds.6 mph51%30.36 "HgN/A
4:20 PM55 °FPassing clouds.8 mph51%30.36 "HgN/A
3:50 PM57 °FPassing clouds.6 mph48%30.39 "HgN/A
3:20 PM55 °FPassing clouds.7 mph51%30.39 "HgN/A
2:50 PM55 °FPassing clouds.6 mph51%30.39 "HgN/A
2:20 PM55 °FPassing clouds.7 mph51%30.42 "HgN/A
1:50 PM55 °FSunny.5 mph47%30.42 "Hg10 mi
1:20 PM54 °FPassing clouds.5 mph51%30.42 "HgN/A
12:50 PM54 °FSunny.3 mph51%30.42 "Hg10 mi
12:20 PM52 °FPassing clouds.6 mph50%30.42 "HgN/A
11:50 AM52 °FPassing clouds.7 mph50%30.42 "HgN/A
11:20 AM50 °FPassing clouds.7 mph50%30.42 "HgN/A
10:50 AM50 °FPassing clouds.8 mph50%30.42 "HgN/A
10:20 AM48 °FPassing clouds.7 mph58%30.42 "HgN/A
9:50 AM46 °FPassing clouds.7 mph57%30.42 "HgN/A
9:20 AM46 °FPassing clouds.6 mph62%30.42 "HgN/A
8:50 AM45 °FSunny.3 mph71%30.42 "Hg10 mi
8:20 AM43 °FSunny.3 mph76%30.42 "Hg10 mi
7:50 AM41 °FSunny.3 mph81%30.42 "Hg10 mi
7:20 AM39 °FSunny.1 mph81%30.42 "Hg10 mi
Weather by CustomWeather, © 2014

See weather overview